SL-8 DEB, 21750

Orbit data source: Space-Track

SL-8 DEB, 21750 is space debris in LEO originally from a launch on Tue, 12 Feb 1991 UTC launched from the Plesetsk Missile And Space Complex (PKMTR). Debris objects in space refer to the collection of defunct objects orbiting the Earth. Examples of debris include non-operational satellites, rocket bodies, and fragments generated from explosions, collisions, or faulty payload assembly.

Loading next visibility...
Identifier
21750, 1991-009CQ
Orbit
LEO
Country
Flag of CISCIS
Related business
Manufacturer
Unknown
Mission
Spacecraft
Bus & Motor
Unknown
Mass
Unknown
Launch date (UTC)
1991-02-12 (35 years ago)
Launch vehicle
Unknown
Launch site
Plesetsk Missile And Space Complex (PKMTR)
Object type
Payload
Rocket body
Debris
Shape & HBR
Unknown shape, 0.1 m
Radar Cross Section
Medium (>0.1 m² and <1 m²)

Expand to show TLE details & history
Last TLE update: 3 weeks ago

TLE from 3 weeks ago
0 SL-8 DEB
1 21750U 91009CQ  26149.61860273  .00000590  00000-0  50130-2 0  9994
2 21750  74.0776  18.9922 0134873  41.2885 347.3352 12.29699576575711
Epoch: 2026-05-29T14:50Z
TLE epoch observation values (Epoch: 2026-05-29T14:50:47.275Z)
Latitude
27.14492°
Longitude
-82.48227°
Altitude
1,449.106 km
Speed
7.187 km/s
True Right ascension
01h 49m 26s
True Declination
27° 01' 04"
Sunlit
Object was in daylight at epoch
Visualization orbit readout
Latitude
Unknown
Longitude
Unknown
Altitude
Unknown
Speed
Unknown
Apparent Right ascension
Unknown
Apparent Declination
Unknown
Sunlit
N/A
Visualization observer readout
Local Sidereal Time
00:39:46
Azimuth
Unknown
Elevation
Unknown
Doppler factor
Unknown
Orbital elements
Apogee altitude
1,655.335 km
Perigee altitude
1,441.519 km
Semi-major axis
7,926.564 km
Eccentricity
0.01349
Inclination
74.0776°
RAAN
18.9922°
Arg. of periapsis
41.2885°
True anomaly
346.99069°
Mean anomaly
347.3352°
Eccentric anomaly
347.16352°
Mean motion
3.0755 °/min
Orbital period
117.05 mins
BSTAR
0.005013
Loading maneuver chart data...
Computing Atmospheric mass density...
Loading historical data...
Loading historical data...
Loading historical data...
Loading historical data...
Loading historical data...
Loading historical data...
Loading historical data...

Documentation

Showing up to 5 results
|